Карточка аэропорта ULMM

Внимание!
Информация на этой странице в стадии наполнения.
Если вы не увидели какой-то информации, или заметили неточность - пожалуйста сообщите нам!
Спасибо!
Команда RU-STAFF
Название аэропортаМурманск
Название аэропорта (англ.)Murmansk
Превышение267 ft. (81.4 m.)
Координаты68°46.902', 32°45.066'
Высота перехода4000 feet
Эшелон переходаQNH>=1013hPa:FL050; QNH<1013hPa:FL060; QNH<977hPa:FL070
Коды ответчика3101-3117
Зона ОрВДСанкт-Петербург РПИ (ULLL)
Данные METARULMM 200300Z 15003MPS 9999 SCT033 14/13 Q0994 R13/290157 NOSIG RMK QFE739
Проноз погоды (TAF)ULMM 200158Z 2003/2103 19003G08MPS 6000 SCT016CB BECMG 2006/2008 26003G08MPS TEMPO 2008/2018 30005G11MPS 4000 -SHRA BECMG 2018/2019 36003G08MPS
NOTAMshow/hide NOTAM
AWOS   TABLE

Информация о ВПП

ВПП Длина ВПП (м.) Покрытие Курс ВПП Частота ILS
132500Асфальтобетон131110.3
312500Асфальтобетон311108.5

Диспетчерские позиции

Позывной Наименование органа УВД Частота
ULMM_TWRМурманск-Вышка120.7
ULMM_R_APPMurmansk Radar120.3



Спутниковое изображение